Miscellaneous Local Product
Issued by NWS Hastings, NE

Home | Current Version | Previous Version | Graphics & Text | Print | Product List | Glossary On
Versions: 1 2 3 4 5 6 7 8 9 10 11 12 13 14 15 16 17 18 19 20 21 22 23 24 25 26 27 28 29 30 31 32 33 34 35 36 37 38 39 40 41 42 43 44 45 46 47 48 49 50
000
AXUS43 KGID 230602
MISGRI

GID CWA HOURLY WEATHER ROUNDUP
NATIONAL WEATHER SERVICE HASTINGS NE
100 AM CDT TUE SEP 23 2014

NOTE: "FAIR" INDICATES FEW OR NO CLOUDS BELOW 12,000 FEET WITH NO
SIGNIFICANT WEATHER AND/OR OBSTRUCTIONS TO VISIBILITY.

...SOUTH CENTRAL NEBRASKA...

CITY           SKY/WX    TMP DP  RH WIND       PRES   REMARKS
GRAND ISLAND   CLOUDY    60  54  80 SE8       30.14F
HASTINGS       LGT RAIN  60  50  69 SE10      30.14F
KEARNEY        CLOUDY    55  52  88 SE15      30.14F
ORD            LGT RAIN  58  55  90 S10G20    30.11S
YORK           CLOUDY    61  50  67 SE5       30.16F
AURORA         LGT RAIN  61  50  68 SE5       30.15F
LEXINGTON      RAIN      58  55  89 SE3       30.10F
HOLDREGE       RAIN      57  53  86 SE15      30.13S
HEBRON         CLOUDY    61  49  66 SE3       30.16S

...NEBRASKA PANHANDLE...

CITY           SKY/WX    TMP DP  RH WIND       PRES   REMARKS
CHADRON        CLEAR     58  55  90 W5        29.95F
ALLIANCE       CLEAR     54  52  93 SE12      30.01F
SCOTTSBLUFF    CLEAR     54  53  97 E7        30.02F
SIDNEY         MOCLDY    61  57  87 SW9       30.07S

...WESTERN AND NORTH CENTRAL NEBRASKA...

CITY           SKY/WX    TMP DP  RH WIND       PRES   REMARKS
VALENTINE      CLOUDY    60  53  77 S8        30.03S
AINSWORTH      CLOUDY    58  53  86 SE14G22   30.05S
ONEILL         RAIN      59  57  92 S13G20    30.12S
BROKEN BOW     CLOUDY    59  53  80 S14       30.09F
IMPERIAL       CLOUDY    62  55  77 S18G25    30.04F
NORTH PLATTE   CLOUDY    58  52  80 SE9       30.06F
MCCOOK         RAIN      59  56  89 S23G35    30.04F FOG

...EASTERN NEBRASKA...

CITY           SKY/WX    TMP DP  RH WIND       PRES   REMARKS
NORFOLK        CLOUDY    62  51  67 S8        30.13F
SO SIOUX CITY  MOCLDY    58  52  80 SE6       30.16F
TEKAMAH        MOCLDY    57  53  86 CALM      30.17S
COLUMBUS       CLOUDY    61  50  67 S7        30.16F
ALBION         LGT RAIN  58  53  81 S6        30.14S
OMAHA EPPLEY   MOCLDY    62  50  64 S7        30.18F
OFFUTT AFB     CLOUDY    60  56  88 E6        30.18F
MILLARD        CLOUDY    62  53  72 SE5       30.18S
LINCOLN        CLOUDY    62  51  67 S7        30.18S
NEBRASKA CITY    N/A     59  48  68 S6        30.19F
BEATRICE       CLOUDY    61  50  68 SE7       30.17S
FALLS CITY     CLOUDY    56  52  86 S5        30.20F

...NORTHERN KANSAS...

CITY           SKY/WX    TMP DP  RH WIND       PRES   REMARKS
GOODLAND       TSTM      59  57  93 SE16      30.12F FOG
HILL CITY      CLOUDY    68  45  43 S10G24    30.10R
NORTON         RAIN      57  54  88 CALM      30.17
PHILLIPSBURG   CLOUDY    66  46  48 SE6       30.10S
SMITH CENTER   CLOUDY    63  46  55 SE10      30.12S
BELOIT         CLOUDY    64  48  55 SE8       30.13F
HAYS           CLOUDY    66  45  45 S14       30.11F
RUSSELL        CLOUDY    65  47  52 S14       30.11F
CONCORDIA      MOCLDY    62  51  67 SE13      30.15F
SALINA         PTCLDY    63  50  62 SE15      30.16F
TOPEKA         CLEAR     55  51  86 CALM      30.21F



USA.gov is the U.S. government's official web portal to all federal, state and local government web resources and services.